User: anonymous   Login
Location: Unspecified
(0.0000°N, 0.0000°E)
Time: 18:50:16
(UTC+00:00)
Language:

DSCS III A-2 - Orbit

View from above orbital plane
View from above orbital plane
View from above satellite
View from above satellite

Ground track
Ground track

The orbit data is extracted from the following two-line orbital elements,

1 20203U 89069B   21136.54910477 -.00000298  00000-0  00000-0 0  9999
2 20203  13.9760  17.7834 0015175 355.6512 196.2943  0.99122617  6570
Epoch (UTC): 16 May 2021 13:10:42
Eccentricity: 0.0015175
inclination: 13.9760°
perigee height: 36047 km
apogee height: 36176 km
right ascension of ascending node: 17.7834°
argument of perigee: 355.6512°
revolutions per day: 0.99122617
mean anomaly at epoch: 196.2943°
orbit number at epoch: 657

The dashed part of the orbit path shows where the satellite is in the earth's shadow,  

DLR